Overview Statistics Trail Chart Weather Telemetry Raw packets
 

This is the latest recevied weather packets stored in our database for station/object PP5CFL-2. If no packets are shown the sender has not sent any weather packets the latest 10 day(s).

<< 5 6 7 8 9 10 11 >>
Time Temp. Humidity Pressure Rain* Wind** Luminosity Snow
1788628620 18.33° C 95% 1017.2 hPa - - - -
1788628320 18.33° C 94% 1017.4 hPa - - - -
1788628020 18.33° C 91% 1017.4 hPa - - - -
1788627720 18.89° C 89% 1017.2 hPa - - - -
1788627421 18.89° C 88% 1017.4 hPa - - - -
1788627121 18.89° C 86% 1017.4 hPa - - - -
1788626820 18.89° C 87% 1017.5 hPa - - - -
1788626520 18.89° C 87% 1017.5 hPa - - - -
1788626220 19.44° C 86% 1017.4 hPa - - - -
1788625920 19.44° C 86% 1017.3 hPa - - - -
1788625620 19.44° C 85% 1017.4 hPa - - - -
1788625320 18.89° C 85% 1017.5 hPa - - - -
1788625020 18.89° C 85% 1017.6 hPa - - - -
1788624720 18.89° C 82% 1017.9 hPa - - - -
1788624420 18.89° C 84% 1018 hPa - - - -
1788624120 18.33° C 83% 1018 hPa - - - -
1788623820 18.33° C 81% 1017.7 hPa - - - -
1788623520 18.33° C 86% 1017.7 hPa - - - -
1788623220 18.33° C 91% 1017.8 hPa - - - -
1788622920 18.33° C 91% 1017.7 hPa - - - -
1788622620 18.33° C 91% 1017.6 hPa - - - -
1788622320 18.33° C 88% 1017.8 hPa - - - -
1788622020 18.33° C 92% 1017.9 hPa - - - -
1788621720 18.89° C 91% 1017.7 hPa - - - -
1788621420 18.89° C 90% 1017.5 hPa - - - -

* Rain since midnight (hover to see other rain measurements)
** Current wind speed in m/s (hover to see current wind gust speed)